This is the latest recevied weather packets stored in our database for station/object K9MWD. If no packets are shown the sender has not sent any weather packets the latest 10 day(s).
| Time | Temp. | Humidity | Pressure | Rain* | Wind** | Luminosity | Snow |
|---|---|---|---|---|---|---|---|
| 1777580483 | 17.22° C | 86% | 1013.4 hPa | 0 mm | - | 79 W/m² | - |
| 1777580183 | 17.22° C | 86% | 1013.2 hPa | 0 mm | - | 51 W/m² | - |
| 1777579881 | 17.22° C | 86% | 1013.7 hPa | 0 mm | - | 44 W/m² | - |
| 1777579580 | 17.22° C | 86% | 1014 hPa | 0 mm | - | 74 W/m² | - |
| 1777579280 | 17.22° C | 86% | 1014 hPa | 0 mm | - | 62 W/m² | - |
| 1777578976 | 17.22° C | 86% | 1014 hPa | 0 mm | - | 65 W/m² | - |
| 1777578671 | 17.22° C | 86% | 1013.7 hPa | 0 mm | - | 61 W/m² | - |
| 1777578370 | 17.22° C | 86% | 1013.3 hPa | 0 mm | - | 73 W/m² | - |
| 1777578066 | 17.22° C | 86% | 1013 hPa | 0 mm | - | 86 W/m² | - |
| 1777577761 | 17.22° C | 87% | 1013.2 hPa | 0 mm | - | 89 W/m² | - |
| 1777577458 | 17.22° C | 87% | 1012.8 hPa | 0 mm | - | 118 W/m² | - |
| 1777577155 | 17.22° C | 87% | 1012.6 hPa | 0 mm | - | 104 W/m² | - |
| 1777576852 | 17.22° C | 87% | 1012.3 hPa | 0 mm | - | 112 W/m² | - |
| 1777576550 | 17.22° C | 87% | 1012.3 hPa | 0 mm | - | 127 W/m² | - |
| 1777576247 | 17.22° C | 87% | 1012.1 hPa | 0 mm | - | 128 W/m² | - |
| 1777575943 | 17.22° C | 86% | 1012.2 hPa | 0 mm | - | 172 W/m² | - |
| 1777575639 | 17.78° C | 86% | 1012.2 hPa | 0 mm | - | 174 W/m² | - |
| 1777575336 | 17.78° C | 86% | 1012.1 hPa | 0 mm | - | 213 W/m² | - |
| 1777575032 | 17.22° C | 87% | 1012 hPa | 0 mm | - | 255 W/m² | - |
| 1777574728 | 17.22° C | 88% | 1011.9 hPa | 0 mm | - | 351 W/m² | - |
| 1777574426 | 16.67° C | 88% | 1011.7 hPa | 0 mm | - | 290 W/m² | - |
| 1777574121 | 16.67° C | 89% | 1011.8 hPa | 0 mm | - | 240 W/m² | - |
| 1777573817 | 16.67° C | 89% | 1012.3 hPa | 0 mm | - | 207 W/m² | - |
| 1777573512 | 16.67° C | 90% | 1012.2 hPa | 0 mm | - | 227 W/m² | - |
| 1777573208 | 16.67° C | 91% | 1011.7 hPa | 0 mm | - | 263 W/m² | - |
* Rain latest hour (hover to see other rain measurements)
** Current wind speed in m/s (hover to see current wind gust speed)